User: anonymous   Login
Location: Arbon
(43.0005°N, 0.7472°E)
Time: 12:06:28
(UTC+00:00)
Language:

Cosmos 1340 Rocket - Orbit

View from above orbital plane
View from above orbital plane
View from above satellite
View from above satellite

Ground track
Ground track

The orbit data is extracted from the following two-line orbital elements,

1 13068U 82013B   20293.94964090 +.00000983 +00000-0 +63012-4 0  9995
2 13068 081.2013 268.1523 0020963 245.2281 114.6762 15.07486012107128
Epoch (UTC): 19 October 2020 22:47:28
Eccentricity: 0.0020963
inclination: 81.2013°
perigee height: 529 km
apogee height: 558 km
right ascension of ascending node: 268.1523°
argument of perigee: 245.2281°
revolutions per day: 15.07486012
mean anomaly at epoch: 114.6762°
orbit number at epoch: 10712

The dashed part of the orbit path shows where the satellite is in the earth's shadow,  

DLR